Location: Capannuccia
(43.7000°N, 11.3000°E)
Time: 06:43:46
(UTC+00:00)

ISS - Visible Passes

Search period start: 30 July 2021 00:00
Search period end: 09 August 2021 00:00
Orbit: 419 x 421 km, 51.6° (Epoch: 29 July)

Date Brightness Start Highest point End Pass type
(mag) Time Alt. Az. Time Alt. Az. Time Alt. Az.
30 Jul -3.1 20:26:20 10° WNW 20:29:33 42° SW 20:30:18 35° S visible
31 Jul -3.7 19:38:55 10° WNW 19:42:17 70° SW 19:44:43 17° SE visible
01 Aug -1.6 20:29:16 10° W 20:31:24 16° SW 20:32:09 15° SSW visible
02 Aug -2.1 19:41:23 10° W 19:44:14 25° SW 19:46:42 12° S visible
